Wind_Speed
22 21 19 16 15 11 10 8 9 8 8 8 11 14 18 21 18 18 15 15 18 21 21 25 26 26 27 28 33 36 34 32 33 37 38 37 35 35 32 32 32 32 30 26
25 26 25 24 22 19 15 14 14 13 12 10 12 17 19 22 17 16 18 20 22 24 25 27 28 29 30 33 39 39 39 39 41 47 52 50 45 42 41 39 38 41 38 34
28 27 29 28 27 23 19 20 17 18 16 17 18 21 25 23 20 21 23 24 26 27 26 30 32 35 37 39 43 43 41 47 48 51 51 55 48 45 47 49 40 42 46 43
28 30 30 25 24 20 19 16 16 20 23 22 23 26 26 22 21 22 25 28 32 35 37 39 40 40 44 46 43 46 50 51 52 49 51 49 44 36 36 51 44 42 50 48
29 28 29 24 20 21 18 16 16 20 23 24 25 23 24 26 28 31 33 34 36 39 41 38 35 36 39 43 44 43 46 47 46 43 46 49 39 33 33 36 37 43 46 53
30 30 28 21 21 20 18 16 15 16 17 19 20 24 28 32 34 35 34 35 37 39 33 31 33 37 40 42 41 40 38 35 35 34 34 29 32 35 39 40 40 41 43 44
34 26 22 19 19 19 15 12 14 15 16 19 22 25 29 32 32 29 32 34 28 31 29 27 30 33 38 42 36 31 34 31 33 35 37 37 37 39 41 40 41 43 43 43
31 23 19 15 14 13 14 11 13 16 18 21 24 28 30 31 31 32 32 30 30 27 26 29 33 35 36 40 37 32 31 36 33 35 37 40 38 35 37 35 38 41 44 47
29 24 22 19 18 16 13 12 15 17 20 23 26 27 29 32 33 35 32 29 27 27 27 31 32 34 35 35 34 32 32 31 30 37 32 26 23 29 21 21 14 21 36 47
32 31 28 24 21 18 16 16 18 20 20 24 27 31 33 33 34 35 30 27 27 28 30 32 30 28 32 32 34 36 35 34 32 30 24 18 17 19 15 10 10 13 36 33
36 33 30 28 24 24 24 22 24 25 25 29 32 33 35 36 35 31 27 27 27 29 31 27 26 31 32 32 32 36 36 35 31 27 15 15 12 14 13 10 9 11 17 24
37 33 31 32 32 33 32 31 31 29 31 34 35 36 37 37 33 28 27 28 30 28 23 26 29 30 31 31 33 35 33 28 22 20 14 16 19 22 19 14 16 19 16 11
42 40 38 39 41 39 37 37 37 37 37 38 38 38 37 35 32 30 30 29 27 29 30 28 30 30 31 34 34 34 23 19 16 20 22 20 24 24 27 20 20 17 17 20
45 46 45 42 41 42 43 42 42 41 39 39 39 38 35 32 30 30 30 29 29 31 31 32 33 31 32 33 30 27 23 20 21 22 25 23 23 26 25 26 26 22 21 22
43 40 39 39 41 43 43 43 43 42 40 38 38 35 31 29 31 32 31 31 31 31 30 32 33 33 32 31 27 26 25 22 22 23 26 27 26 28 26 26 26 27 27 28
41 41 40 40 43 44 44 44 44 41 38 37 35 31 30 32 33 32 32 31 30 29 30 32 34 35 32 30 31 28 26 26 28 30 32 32 32 32 31 31 31 32 33 34
41 42 41 41 41 41 42 43 41 38 37 35 30 29 31 32 32 31 30 29 28 27 29 30 30 30 30 28 21 21 24 27 29 30 27 28 29 32 32 33 34 35 36 36
42 42 42 42 43 44 43 41 39 38 35 28 29 31 31 30 29 29 28 27 25 27 27 25 26 24 21 22 24 25 21 24 24 23 26 27 29 31 32 34 36 38 39 40
40 41 43 45 45 44 41 38 37 31 28 29 29 29 28 29 29 28 26 24 26 25 21 25 26 24 23 22 24 25 27 28 28 28 30 32 34 37 39 41 43 44 44 45
41 42 41 42 42 37 37 34 29 28 30 29 27 27 26 27 25 24 23 25 25 24 24 24 24 25 26 26 28 30 32 33 34 35 37 38 38 39 39 40 41 41 40 39
33 33 34 34 34 34 29 28 30 31 28 26 26 25 25 24 23 23 26 22 23 23 25 25 25 26 28 31 33 34 36 38 39 40 41 41 40 39 38 36 35 34 35 36
29 28 26 25 21 21 24 28 31 28 26 25 24 23 23 24 23 21 19 21 22 24 23 25 28 31 33 35 37 39 40 41 41 41 39 37 36 36 36 36 36 35 34 33
25 24 21 19 21 25 27 25 22 21 18 20 20 21 18 17 17 19 21 21 23 25 27 30 33 35 37 38 40 40 40 38 36 35 35 36 36 35 35 35 33 32 32 33
22 23 26 27 24 24 24 21 17 16 16 18 18 17 18 19 18 20 22 24 26 29 32 35 36 37 39 38 36 34 33 33 33 33 32 31 31 32 31 31 32 34 35 37
24 27 25 22 20 18 16 14 14 15 17 17 18 20 21 22 21 23 25 27 30 32 34 36 37 36 33 32 32 30 29 29 28 27 27 28 29 31 33 34 35 37 39 40
25 22 20 18 17 16 14 14 14 15 16 18 19 20 21 22 24 26 28 30 32 34 35 33 31 31 30 28 27 27 25 24 25 27 30 33 33 34 35 35 37 37 38 37
24 21 17 18 17 13 14 14 15 16 17 19 21 21 23 24 26 29 30 32 34 33 31 31 30 29 27 26 25 24 25 28 30 32 32 33 34 35 36 35 34 35 36 36
Wind_Direction
207 215 234 255 266 266 260 275 266 299 316 331 343 343 346 348 335 335 333 335 334 331 339 338 343 343 337 333 332 332 331 325 318 321 317 310 303 300 297 281 273 273 272 269
210 215 229 247 257 259 263 269 270 288 299 308 317 326 324 328 332 326 331 333 330 327 328 333 329 329 326 319 326 325 318 315 313 312 310 302 296 292 290 275 269 269 267 264
217 223 233 242 251 259 268 266 272 276 294 309 311 312 313 320 324 324 324 322 321 324 319 321 324 320 316 314 310 311 312 309 307 306 297 287 273 273 273 268 261 261 260 258
220 224 232 242 251 260 268 270 275 279 283 293 301 306 312 314 310 307 309 316 324 325 323 319 317 312 308 305 306 309 305 301 299 295 285 288 293 289 294 257 255 267 256 254
216 224 237 243 252 261 269 271 275 281 287 294 300 301 304 308 309 310 316 318 314 312 311 313 311 306 305 305 301 297 293 295 294 293 288 291 298 295 283 279 273 268 258 253
219 228 237 245 255 264 271 272 281 284 288 293 298 306 307 307 307 310 310 309 311 312 309 305 304 303 301 296 294 293 294 293 297 298 295 292 291 286 290 285 268 263 251 241
226 230 239 252 259 264 261 266 269 276 283 296 299 299 300 300 305 309 308 311 311 312 314 306 301 301 302 300 300 291 301 295 304 299 301 294 294 290 289 281 261 255 254 259
229 227 239 257 254 255 253 259 266 281 288 289 295 294 292 295 300 308 311 317 319 313 311 313 315 312 307 306 298 295 296 298 298 298 299 293 294 296 286 274 265 249 246 245
235 235 243 250 259 264 270 273 273 276 279 285 290 291 300 300 305 317 316 316 311 312 315 316 313 309 309 310 302 298 300 302 305 311 314 304 307 328 292 290 247 254 251 242
240 239 250 253 260 263 280 283 279 282 293 301 302 307 308 307 310 313 311 313 311 316 315 314 309 313 318 311 309 310 310 310 308 313 318 313 323 319 323 268 266 227 250 229
239 245 252 260 273 287 288 290 296 299 299 301 305 303 303 306 310 310 313 311 312 315 313 312 313 317 316 311 309 313 314 317 311 306 305 318 325 340 1 8 327 283 265 236
249 257 269 276 279 284 286 292 295 295 299 301 301 300 301 306 309 312 311 310 316 316 310 313 313 316 316 316 306 311 315 316 301 300 308 312 314 305 310 324 336 336 338 325
245 250 263 266 268 276 284 290 292 293 296 298 296 298 303 308 309 311 310 314 312 312 312 308 313 314 317 320 309 306 315 303 309 292 304 300 316 310 310 309 310 309 311 302
247 255 263 263 267 273 279 283 285 289 293 293 296 301 307 308 308 305 310 312 310 313 312 309 311 313 318 319 316 311 312 309 312 310 312 320 322 316 311 311 311 312 307 300
247 249 251 256 264 269 273 276 282 287 289 292 297 304 307 305 302 305 310 313 317 315 310 307 307 310 311 313 317 313 310 308 303 306 304 302 307 307 305 306 304 303 303 299
241 244 250 255 260 265 270 275 279 283 287 290 299 304 301 299 305 309 312 315 312 308 305 304 307 312 317 310 309 305 308 310 306 305 306 304 302 304 303 303 301 299 299 296
241 245 249 254 259 263 267 272 277 282 284 295 299 296 297 303 305 308 309 307 306 305 309 315 317 315 314 309 302 302 303 307 305 305 304 303 302 300 298 298 298 298 298 297
236 243 249 254 258 261 267 273 277 279 288 292 290 295 298 301 305 306 303 304 307 310 314 320 326 326 321 321 307 305 310 312 317 312 306 305 304 302 300 299 298 298 299 299
237 242 247 252 257 262 270 274 273 280 282 286 289 293 299 302 302 299 301 304 309 310 312 316 317 319 323 323 316 312 313 313 313 310 307 304 303 301 300 299 298 297 297 297
239 243 250 256 261 265 263 268 274 277 279 283 291 296 296 295 294 299 303 307 310 311 310 311 312 316 318 317 316 315 314 312 311 308 305 303 301 300 300 300 301 302 303 303
240 245 248 249 250 258 268 268 268 271 278 289 291 292 291 293 297 300 303 305 307 308 308 308 312 313 312 312 313 313 312 310 309 307 307 307 308 308 309 308 308 308 307 308
235 243 245 240 240 249 259 268 272 273 279 279 284 286 291 297 298 297 303 306 304 305 307 309 310 311 312 313 314 313 311 310 308 308 310 312 313 313 314 314 313 313 313 313
222 230 239 250 252 256 254 276 276 265 268 280 283 294 301 303 302 306 305 305 306 307 307 307 308 309 312 313 312 310 310 312 315 316 317 316 316 316 315 314 312 312 312 311
226 240 241 242 245 259 264 260 253 265 274 280 284 287 294 300 302 302 305 306 305 305 305 307 311 313 314 312 312 313 314 314 314 315 315 315 314 314 315 313 310 308 306 304
223 224 235 241 251 257 245 244 250 263 272 280 283 283 292 299 299 303 303 301 303 305 309 313 315 313 312 312 312 313 314 313 314 318 318 316 314 311 309 307 306 305 304 303
221 227 233 243 238 232 238 253 260 270 279 282 288 293 294 294 297 299 300 303 307 311 315 314 312 312 310 310 310 310 311 314 317 317 316 317 316 315 313 313 313 312 311 309
215 222 230 228 229 243 255 261 270 276 282 287 291 291 292 293 297 300 304 308 313 315 313 312 311 310 311 315 318 319 319 319 319 319 319 318 317 316 317 318 317 315 314 313
Height
5910 5913 5916 5918 5920 5922 5923 5925 5926 5927 5926 5926 5926 5925 5924 5924 5922 5921 5919 5917 5916 5913 5912 5909 5906 5904 5901 5899 5898 5896 5893 5891 5888 5885 5885 5883 5880 5879 5878 5876 5875 5875 5875 5874
5906 5909 5912 5915 5916 5919 5920 5921 5923 5923 5924 5924 5923 5922 5922 5921 5920 5918 5916 5915 5913 5910 5907 5905 5902 5899 5897 5895 5892 5888 5885 5883 5881 5877 5873 5870 5867 5867 5866 5866 5865 5864 5866 5866
5902 5906 5908 5910 5912 5914 5916 5918 5919 5919 5920 5920 5919 5919 5918 5916 5915 5913 5911 5910 5908 5905 5902 5899 5896 5893 5890 5887 5884 5880 5876 5872 5870 5866 5861 5855 5851 5850 5850 5850 5852 5852 5852 5854
5899 5902 5902 5905 5907 5910 5912 5914 5915 5915 5915 5915 5915 5914 5912 5911 5909 5907 5905 5903 5899 5897 5895 5892 5889 5886 5882 5879 5874 5869 5865 5861 5857 5853 5845 5837 5832 5836 5831 5834 5838 5838 5838 5840
5892 5896 5898 5901 5904 5906 5908 5909 5910 5910 5910 5910 5910 5908 5905 5902 5900 5898 5896 5894 5892 5890 5887 5884 5881 5876 5871 5866 5862 5859 5853 5849 5844 5838 5834 5826 5826 5825 5824 5825 5823 5824 5822 5825
5888 5890 5893 5898 5899 5901 5902 5903 5905 5905 5905 5904 5903 5901 5898 5895 5893 5892 5889 5887 5884 5882 5878 5875 5871 5866 5861 5856 5852 5847 5842 5837 5832 5828 5824 5819 5817 5814 5810 5808 5806 5808 5807 5806
5882 5886 5890 5893 5895 5896 5898 5901 5899 5900 5899 5899 5897 5895 5892 5889 5887 5885 5884 5881 5878 5875 5871 5867 5863 5859 5853 5847 5841 5836 5832 5826 5822 5818 5813 5808 5803 5799 5796 5792 5790 5793 5795 5798
5878 5882 5886 5888 5889 5892 5892 5893 5894 5894 5894 5892 5891 5888 5886 5884 5882 5881 5878 5874 5871 5868 5864 5859 5854 5849 5844 5838 5831 5827 5822 5817 5812 5809 5803 5798 5794 5788 5782 5779 5777 5779 5783 5786
5874 5878 5881 5883 5885 5886 5888 5889 5890 5889 5888 5887 5886 5883 5881 5878 5876 5873 5869 5866 5863 5860 5856 5851 5846 5840 5834 5828 5822 5818 5813 5807 5803 5799 5793 5787 5782 5776 5769 5764 5766 5768 5771 5773
5867 5871 5873 5877 5879 5881 5882 5883 5884 5884 5883 5882 5880 5877 5874 5872 5869 5866 5863 5860 5856 5852 5847 5842 5837 5831 5825 5819 5815 5810 5804 5799 5795 5791 5787 5784 5778 5773 5767 5762 5762 5763 5761 5764
5860 5863 5867 5870 5873 5874 5875 5876 5876 5876 5876 5874 5872 5870 5867 5865 5863 5860 5856 5852 5848 5844 5839 5833 5829 5823 5818 5813 5807 5803 5798 5794 5789 5786 5782 5779 5777 5772 5767 5765 5765 5762 5759 5762
5853 5858 5862 5864 5865 5867 5868 5869 5869 5869 5868 5866 5864 5862 5859 5857 5855 5852 5848 5843 5839 5835 5830 5826 5822 5816 5811 5806 5802 5798 5792 5789 5784 5781 5778 5776 5773 5771 5767 5765 5763 5760 5758 5758
5848 5852 5854 5856 5857 5859 5861 5861 5861 5861 5860 5858 5856 5854 5852 5850 5846 5843 5839 5835 5831 5827 5823 5818 5814 5810 5805 5800 5795 5791 5788 5785 5781 5778 5775 5772 5769 5767 5764 5761 5759 5759 5758 5757
5839 5843 5846 5848 5850 5851 5853 5853 5853 5853 5852 5850 5848 5846 5844 5841 5838 5834 5831 5828 5824 5820 5815 5810 5805 5801 5797 5793 5787 5785 5783 5781 5778 5774 5769 5768 5766 5764 5762 5759 5757 5755 5754 5753
5830 5834 5836 5839 5842 5843 5844 5845 5845 5846 5844 5842 5840 5838 5836 5833 5830 5827 5824 5820 5815 5811 5807 5803 5798 5794 5790 5786 5782 5779 5776 5774 5773 5770 5767 5764 5761 5759 5755 5752 5750 5749 5747 5745
5821 5824 5828 5831 5833 5835 5836 5837 5837 5836 5835 5833 5832 5831 5828 5825 5822 5819 5815 5811 5808 5804 5800 5796 5792 5788 5784 5780 5777 5774 5771 5768 5765 5763 5760 5757 5754 5752 5749 5747 5744 5742 5741 5739
5811 5816 5819 5823 5825 5827 5827 5827 5827 5826 5825 5825 5824 5821 5819 5816 5814 5811 5808 5805 5801 5797 5793 5789 5785 5781 5777 5773 5770 5766 5764 5761 5758 5755 5752 5750 5748 5745 5743 5740 5737 5734 5731 5728
5801 5806 5811 5814 5816 5817 5817 5817 5817 5817 5817 5817 5815 5813 5811 5809 5806 5802 5800 5796 5793 5790 5786 5782 5778 5774 5771 5768 5765 5763 5759 5756 5753 5750 5748 5745 5742 5739 5736 5733 5729 5725 5722 5718
5794 5799 5802 5804 5806 5807 5808 5809 5809 5809 5809 5807 5806 5804 5802 5800 5798 5795 5792 5789 5786 5783 5780 5777 5773 5770 5767 5763 5761 5758 5754 5751 5747 5744 5741 5738 5734 5731 5727 5723 5719 5715 5711 5707
5785 5789 5792 5796 5797 5799 5799 5800 5801 5800 5799 5799 5797 5796 5794 5792 5790 5787 5784 5782 5779 5776 5773 5770 5767 5764 5761 5758 5755 5751 5748 5744 5740 5736 5733 5729 5725 5721 5716 5712 5708 5702 5697 5693
5777 5780 5783 5786 5788 5790 5792 5792 5792 5792 5792 5790 5790 5788 5786 5784 5782 5780 5778 5774 5773 5770 5768 5765 5761 5758 5755 5752 5748 5744 5740 5736 5732 5727 5722 5717 5712 5707 5703 5699 5695 5691 5687 5683
5769 5773 5776 5779 5781 5782 5783 5783 5783 5783 5783 5783 5782 5781 5779 5776 5774 5773 5770 5768 5766 5764 5761 5758 5755 5751 5748 5744 5740 5735 5731 5726 5721 5716 5711 5706 5701 5697 5693 5689 5685 5681 5677 5673
5763 5767 5770 5772 5773 5774 5775 5775 5775 5776 5776 5776 5775 5774 5772 5770 5768 5766 5764 5762 5760 5757 5754 5751 5747 5744 5740 5735 5731 5726 5721 5715 5711 5706 5701 5697 5693 5688 5685 5680 5676 5672 5668 5664
5756 5761 5764 5766 5766 5767 5767 5769 5770 5770 5770 5770 5768 5767 5766 5764 5761 5760 5758 5755 5753 5750 5747 5744 5740 5735 5731 5725 5721 5716 5712 5707 5703 5699 5695 5690 5686 5681 5677 5673 5669 5665 5660 5656
5752 5755 5756 5758 5760 5762 5763 5763 5764 5764 5763 5762 5762 5761 5759 5757 5756 5754 5751 5749 5746 5743 5740 5735 5730 5725 5721 5717 5713 5708 5704 5700 5696 5692 5688 5684 5680 5676 5671 5666 5662 5656 5651 5646
5746 5748 5751 5753 5755 5757 5757 5757 5757 5757 5757 5756 5755 5753 5752 5751 5749 5747 5745 5743 5739 5735 5731 5725 5721 5718 5713 5709 5705 5701 5697 5693 5690 5686 5681 5676 5671 5666 5661 5656 5651 5646 5640 5635
5741 5743 5746 5749 5750 5749 5750 5751 5751 5751 5751 5750 5749 5748 5746 5744 5743 5740 5738 5734 5730 5725 5721 5717 5713 5709 5705 5701 5697 5693 5689 5686 5682 5677 5672 5667 5662 5657 5652 5647 5642 5637 5631 5626